GW2682 Weather Reports


Display with metric or nautical units.
time (UTC)temp
F
wind
direction
speed
MPH
gust
MPH
rain 1hr
in
rain 24hr
in
rain mn
in
humidity
%
barometer
mb
20260506051019 62 255 5.0 13.0 0.00 0.02 0.00 57 1008.4
20260506050518 62 223 4.0 9.0 0.00 0.02 0.00 57 1008.4
20260506045019 62 206 3.0 12.0 0.00 0.02 0.00 57 1008.5
20260506044519 62 168 4.0 8.0 0.00 0.02 0.00 57 1008.6
20260506044018 62 223 2.0 7.0 0.00 0.02 0.00 57 1008.7
20260506043519 62 246 2.0 7.0 0.00 0.02 0.00 57 1008.6
20260506043019 62 247 3.0 5.0 0.00 0.02 0.00 57 1008.7
20260506042519 63 200 3.0 7.0 0.00 0.02 0.00 56 1008.7
20260506042019 63 251 3.0 7.0 0.00 0.02 0.00 56 1008.5
20260506041521 63 232 3.0 6.0 0.00 0.02 0.00 56 1008.6
20260506041032 63 266 3.0 6.0 0.00 0.02 0.00 56 1008.7
20260506040519 63 242 3.0 5.0 0.00 0.02 0.00 56 1008.7
20260506040020 63 197 3.0 5.0 0.00 0.02 0.00 56 1008.7
20260506035520 63 231 3.0 5.0 0.00 0.02 0.02 56 1008.6
20260506035019 63 231 3.0 6.0 0.00 0.02 0.02 56 1008.8
20260506034519 63 231 2.0 8.0 0.00 0.02 0.02 55 1008.6
20260506034041 64 222 4.0 8.0 0.00 0.02 0.02 55 1008.7
20260506033519 64 229 4.0 8.0 0.00 0.02 0.02 55 1008.8
20260506033021 64 265 3.0 5.0 0.00 0.02 0.02 55 1008.7
20260506032530 64 212 3.0 5.0 0.00 0.02 0.02 54 1008.7
20260506032019 64 248 2.0 5.0 0.00 0.02 0.02 54 1008.7
20260506031520 65 219 3.0 4.0 0.00 0.02 0.02 54 1008.7
20260506031041 65 229 2.0 7.0 0.00 0.02 0.02 54 1008.6
20260506030531 65 229 3.0 7.0 0.00 0.02 0.02 53 1008.7
20260506030019 65 223 5.0 7.0 0.00 0.02 0.02 53 1008.8
20260506025519 65 236 5.0 7.0 0.00 0.02 0.02 53 1008.6
20260506025019 65 226 3.0 7.0 0.00 0.02 0.02 53 1008.6
20260506024519 66 220 5.0 8.0 0.00 0.02 0.02 52 1008.5
20260506024019 66 214 5.0 10.0 0.00 0.02 0.02 52 1008.5
20260506023531 66 240 5.0 10.0 0.00 0.02 0.02 51 1008.7
20260506023019 67 235 6.0 11.0 0.00 0.02 0.02 51 1008.6
20260506022519 67 236 6.0 11.0 0.00 0.02 0.02 51 1008.7
20260506022030 67 238 7.0 10.0 0.00 0.02 0.02 51 1008.8
20260506021531 67 226 6.0 11.0 0.00 0.02 0.02 50 1008.8
20260506021019 67 233 5.0 11.0 0.00 0.02 0.02 50 1008.7
20260506020542 67 240 5.0 11.0 0.00 0.02 0.02 50 1008.8
20260506020018 68 210 6.0 10.0 0.00 0.02 0.02 50 1008.8
20260506015519 68 235 6.0 10.0 0.00 0.02 0.02 50 1008.6
20260506015019 68 225 5.0 10.0 0.00 0.02 0.02 49 1008.8
20260506014520 68 260 4.0 9.0 0.00 0.02 0.02 49 1008.7
20260506014043 68 193 5.0 12.0 0.00 0.02 0.02 49 1008.6
20260506013519 68 248 5.0 14.0 0.00 0.02 0.02 49 1008.5
20260506013012 68 236 6.0 11.0 0.00 0.02 0.02 49 1008.5
20260506012512 68 226 3.0 9.0 0.00 0.02 0.02 49 1008.4
20260506012012 68 242 4.0 9.0 0.00 0.02 0.02 48 1008.4
20260506011513 68 219 6.0 9.0 0.00 0.02 0.02 48 1008.4
20260506011025 69 213 4.0 11.0 0.00 0.02 0.02 47 1008.3
20260506010513 69 243 6.0 11.0 0.00 0.02 0.02 46 1008.2
20260506010013 69 236 5.0 9.0 0.00 0.02 0.02 46 1008.2
20260506005513 70 224 5.0 11.0 0.00 0.02 0.02 45 1008.2
20260506005012 70 232 5.0 11.0 0.00 0.02 0.02 44 1008.1
20260506004524 70 229 6.0 11.0 0.00 0.02 0.02 44 1008.0
20260506004013 70 259 4.0 8.0 0.00 0.02 0.02 44 1008.0
20260506003513 70 238 4.0 12.0 0.00 0.02 0.02 44 1008.1
20260506003013 70 276 8.0 12.0 0.00 0.02 0.02 43 1007.9
20260506002514 70 221 7.0 13.0 0.00 0.02 0.02 44 1007.8
20260506002023 70 230 6.0 13.0 0.00 0.02 0.02 44 1007.7
20260506001524 70 216 6.0 15.0 0.00 0.02 0.02 44 1007.6
20260506001024 71 224 7.0 18.0 0.00 0.02 0.02 43 1007.7
20260506000525 71 226 11.0 18.0 0.00 0.02 0.02 43 1007.7
20260505235012 71 215 8.0 14.0 0.00 0.02 0.02 44 1007.6
20260505234513 71 241 8.0 13.0 0.00 0.02 0.02 43 1007.7
20260505234014 71 240 9.0 12.0 0.00 0.02 0.02 44 1007.5
20260505233513 70 234 7.0 14.0 0.00 0.02 0.02 44 1007.6
20260505233024 71 230 7.0 14.0 0.00 0.02 0.02 45 1007.4
20260505232513 71 221 6.0 17.0 0.00 0.02 0.02 45 1007.5
20260505232024 71 224 9.0 15.0 0.00 0.02 0.02 45 1007.3
20260505231512 71 226 9.0 15.0 0.00 0.02 0.02 45 1007.5
20260505231013 71 242 9.0 14.0 0.00 0.02 0.02 44 1007.5
20260505230513 71 202 8.0 13.0 0.00 0.02 0.02 45 1007.4
20260505230013 71 233 5.0 13.0 0.00 0.02 0.02 46 1007.5
20260505225513 71 240 6.0 12.0 0.00 0.02 0.02 46 1007.5
20260505225024 71 219 7.0 16.0 0.00 0.02 0.02 45 1007.4
20260505224513 71 202 7.0 13.0 0.00 0.02 0.02 45 1007.2
20260505224013 71 255 8.0 15.0 0.00 0.02 0.02 45 1007.1
20260505223524 70 210 5.0 12.0 0.00 0.02 0.02 46 1007.0
20260505223013 70 225 7.0 12.0 0.00 0.02 0.02 46 1007.0
20260505222514 70 236 6.0 10.0 0.00 0.02 0.02 46 1007.2
20260505222013 70 221 5.0 12.0 0.00 0.02 0.02 46 1007.3
20260505221514 71 230 7.0 14.0 0.00 0.02 0.02 46 1007.3
20260505221013 71 226 6.0 15.0 0.00 0.02 0.02 46 1007.2
20260505220513 71 243 9.0 19.0 0.00 0.02 0.02 45 1007.2
20260505220024 71 198 11.0 22.0 0.00 0.02 0.02 45 1007.2
20260505215514 70 229 8.0 15.0 0.02 0.02 0.02 46 1007.2
20260505215013 70 233 7.0 15.0 0.02 0.02 0.02 47 1007.2
20260505214513 70 236 9.0 15.0 0.02 0.02 0.02 47 1007.2
20260505214013 70 219 8.0 17.0 0.02 0.02 0.02 49 1007.2
20260505213514 69 217 10.0 17.0 0.02 0.02 0.02 51 1007.0
20260505212514 68 242 3.0 9.0 0.02 0.02 0.02 63 1006.9
20260505212013 67 290 3.0 6.0 0.02 0.02 0.02 63 1006.8
20260505211514 66 215 3.0 6.0 0.02 0.02 0.02 69 1006.9
20260505211047 65 320 1.0 10.0 0.02 0.02 0.02 70 1006.9
20260505210514 66 117 3.0 24.0 0.02 0.02 0.02 69 1007.0
20260505210025 68 275 10.0 32.0 0.02 0.02 0.02 55 1007.4
20260505205514 71 224 19.0 32.0 0.00 0.00 0.00 45 1007.6
20260505205013 72 226 10.0 16.0 0.00 0.00 0.00 41 1006.8
20260505204514 72 233 6.0 18.0 0.00 0.00 0.00 41 1006.5
20260505204013 72 240 10.0 22.0 0.00 0.00 0.00 41 1006.5
20260505203514 73 233 11.0 24.0 0.00 0.00 0.00 40 1006.4
20260505203014 73 132 11.0 21.0 0.00 0.00 0.00 41 1006.5
20260505202514 73 220 11.0 22.0 0.00 0.00 0.00 41 1006.5
20260505202014 73 221 12.0 22.0 0.00 0.00 0.00 41 1006.4
20260505201514 73 239 9.0 20.0 0.00 0.00 0.00 40 1006.4
20260505201015 74 231 11.0 20.0 0.00 0.00 0.00 39 1006.2
20260505200513 74 234 14.0 27.0 0.00 0.00 0.00 38 1006.3
20260505200025 74 221 13.0 27.0 0.00 0.00 0.00 38 1006.3
20260505195514 74 195 11.0 24.0 0.00 0.00 0.00 38 1006.2
20260505195025 74 223 8.0 23.0 0.00 0.00 0.00 40 1006.4
20260505194526 74 252 14.0 25.0 0.00 0.00 0.00 39 1006.4
20260505194014 75 228 15.0 24.0 0.00 0.00 0.00 38 1006.1
20260505193526 75 232 11.0 17.0 0.00 0.00 0.00 40 1006.2
20260505193014 75 223 10.0 17.0 0.00 0.00 0.00 40 1006.6
20260505192515 75 205 10.0 22.0 0.00 0.00 0.00 39 1006.7
20260505192014 75 242 12.0 22.0 0.00 0.00 0.00 38 1006.9
20260505191514 75 224 11.0 18.0 0.00 0.00 0.00 40 1007.0
20260505191014 75 259 8.0 20.0 0.00 0.00 0.00 40 1007.0
20260505190514 75 220 8.0 23.0 0.00 0.00 0.00 40 1007.1
20260505190018 75 226 13.0 23.0 0.00 0.00 0.00 42 1007.1
20260505185514 74 243 11.0 23.0 0.00 0.00 0.00 43 1007.3
20260505185014 74 202 8.0 27.0 0.00 0.00 0.00 42 1007.3
20260505184516 74 255 11.0 19.0 0.00 0.00 0.00 42 1007.4
20260505184026 73 217 8.0 21.0 0.00 0.00 0.00 42 1007.4
20260505183514 74 235 13.0 21.0 0.00 0.00 0.00 40 1007.4
20260505183014 74 243 13.0 20.0 0.00 0.00 0.00 41 1007.5
20260505182525 74 233 12.0 17.0 0.00 0.00 0.00 40 1007.5
20260505182014 74 175 8.0 23.0 0.00 0.00 0.00 42 1007.5
20260505181514 73 207 12.0 25.0 0.00 0.00 0.00 41 1007.8
20260505181015 73 246 12.0 23.0 0.00 0.00 0.00 41 1007.7
20260505180514 74 190 10.0 23.0 0.00 0.00 0.00 41 1007.6
20260505180025 73 245 15.0 32.0 0.00 0.00 0.00 41 1007.6
20260505175514 74 238 16.0 32.0 0.00 0.00 0.00 40 1007.9
20260505175016 74 219 12.0 28.0 0.00 0.00 0.00 40 1007.7
20260505174514 74 248 14.0 27.0 0.00 0.00 0.00 39 1007.5
20260505174014 75 232 18.0 27.0 0.00 0.00 0.00 38 1007.6
20260505173514 74 261 12.0 21.0 0.00 0.00 0.00 41 1007.7
20260505173015 74 191 12.0 23.0 0.00 0.00 0.00 44 1007.6
20260505172514 73 207 14.0 23.0 0.00 0.00 0.00 42 1007.8
20260505172015 73 245 15.0 27.0 0.00 0.00 0.00 43 1007.7
20260505171515 73 238 16.0 27.0 0.00 0.00 0.00 43 1007.7
20260505171015 73 261 15.0 24.0 0.00 0.00 0.00 42 1007.8
20260505170514 73 221 10.0 25.0 0.00 0.00 0.00 44 1007.8
20260505170018 72 241 15.0 25.0 0.00 0.00 0.00 43 1007.9
20260505165515 72 221 13.0 22.0 0.00 0.00 0.00 44 1007.8
20260505165015 72 202 15.0 24.0 0.00 0.00 0.00 43 1007.8
20260505164515 72 231 13.0 24.0 0.00 0.00 0.00 44 1008.1
20260505164014 72 233 13.0 21.0 0.00 0.00 0.00 45 1008.1
20260505163527 73 245 10.0 24.0 0.00 0.00 0.00 43 1008.1
20260505163015 73 187 10.0 21.0 0.00 0.00 0.00 47 1008.1
20260505162528 73 223 14.0 22.0 0.00 0.00 0.00 44 1008.1
20260505162016 73 220 12.0 22.0 0.00 0.00 0.00 45 1008.2
20260505161516 73 212 14.0 20.0 0.00 0.00 0.00 45 1008.3
20260505161016 73 261 7.0 18.0 0.00 0.00 0.00 46 1008.2
20260505160516 72 210 6.0 22.0 0.00 0.00 0.00 48 1008.3
20260505153016 72 234 13.0 22.0 0.00 0.00 0.00 48 1008.8
20260505152516 71 251 10.0 24.0 0.00 0.00 0.00 48 1008.8
20260505152016 72 218 13.0 24.0 0.00 0.00 0.00 48 1009.0
20260505151517 71 226 11.0 24.0 0.00 0.00 0.00 50 1008.9
20260505150518 72 188 9.0 17.0 0.00 0.00 0.00 50 1008.9
20260505140516 68 227 14.0 25.0 0.00 0.00 0.00 52 1009.0
20260505125016 65 238 8.0 20.0 0.00 0.00 0.00 59 1009.3
20260505124527 64 251 13.0 22.0 0.00 0.00 0.00 58 1009.3
20260505124028 64 250 13.0 22.0 0.00 0.00 0.00 59 1009.3
20260505123517 64 241 8.0 16.0 0.00 0.00 0.00 59 1009.3
20260505123016 63 217 7.0 12.0 0.00 0.00 0.00 61 1009.1
20260505122539 63 243 6.0 12.0 0.00 0.00 0.00 61 1009.1
20260505122016 63 217 6.0 12.0 0.00 0.00 0.00 63 1009.1
20260505121550 62 241 7.0 11.0 0.00 0.00 0.00 63 1009.2
20260505121016 62 228 7.0 11.0 0.00 0.00 0.00 64 1009.3
20260505120539 61 248 5.0 11.0 0.00 0.00 0.00 65 1009.2
20260505120017 61 227 5.0 10.0 0.00 0.00 0.00 66 1009.2
20260505115516 60 235 5.0 14.0 0.00 0.00 0.00 67 1009.3
20260505115017 60 252 6.0 14.0 0.00 0.00 0.00 67 1009.3
20260505114516 60 227 7.0 13.0 0.00 0.00 0.00 68 1009.3
20260505114016 59 243 8.0 13.0 0.00 0.00 0.00 68 1009.4
20260505113517 59 233 8.0 15.0 0.00 0.00 0.00 68 1009.4
20260505113017 59 229 8.0 15.0 0.00 0.00 0.00 68 1009.3
20260505112517 59 230 9.0 14.0 0.00 0.00 0.00 69 1009.4
20260505112018 59 226 6.0 11.0 0.00 0.00 0.00 70 1009.3
20260505111517 58 252 6.0 15.0 0.00 0.00 0.00 70 1009.3
20260505111017 58 265 8.0 15.0 0.00 0.00 0.00 70 1009.2
20260505110517 58 264 6.0 12.0 0.00 0.00 0.00 71 1009.2
20260505102017 55 259 4.0 10.0 0.00 0.00 0.00 76 1008.6
20260505101528 55 221 5.0 13.0 0.00 0.00 0.00 76 1008.6
20260505100528 54 177 4.0 9.0 0.00 0.00 0.00 75 1008.6
20260505100018 54 230 4.0 8.0 0.00 0.00 0.00 74 1008.5
20260505095517 54 240 5.0 8.0 0.00 0.00 0.00 74 1008.5
20260505095018 55 148 3.0 8.0 0.00 0.00 0.00 73 1008.6
20260505094517 55 221 5.0 9.0 0.00 0.00 0.00 73 1008.5
20260505094017 55 229 5.0 9.0 0.00 0.00 0.00 73 1008.5
20260505093517 55 262 4.0 8.0 0.00 0.00 0.00 73 1008.5
20260505093018 55 245 4.0 8.0 0.00 0.00 0.00 73 1008.5
20260505092518 55 222 4.0 8.0 0.00 0.00 0.00 72 1008.4
20260505092017 55 217 4.0 8.0 0.00 0.00 0.00 72 1008.3
20260505091518 55 237 3.0 7.0 0.00 0.00 0.00 72 1008.4
20260505091017 55 203 2.0 10.0 0.00 0.00 0.00 73 1008.4
20260505090517 55 198 2.0 10.0 0.00 0.00 0.00 73 1008.5
20260505090029 55 176 1.0 5.0 0.00 0.00 0.00 74 1008.6
20260505085518 54 232 1.0 3.0 0.00 0.00 0.00 76 1008.6
20260505085017 54 206 0.0 4.0 0.00 0.00 0.00 77 1008.7
20260505084517 54 176 1.0 3.0 0.00 0.00 0.00 77 1008.6
20260505083518 55 278 1.0 7.0 0.00 0.00 0.00 74 1008.9
20260505083028 55 283 3.0 9.0 0.00 0.00 0.00 74 1008.9
20260505082518 55 285 5.0 10.0 0.00 0.00 0.00 74 1008.7
20260505082041 55 260 3.0 17.0 0.00 0.00 0.00 73 1008.1
20260505081518 55 218 7.0 17.0 0.00 0.00 0.00 71 1008.3
20260505081018 55 228 4.0 7.0 0.00 0.00 0.00 68 1008.5
20260505080518 55 218 5.0 7.0 0.00 0.00 0.00 68 1008.6
20260505080020 55 226 3.0 7.0 0.00 0.00 0.00 68 1008.5
20260505075528 56 232 4.0 8.0 0.00 0.00 0.00 67 1008.4
20260505075029 55 247 3.0 8.0 0.00 0.00 0.00 67 1008.2
20260505074518 56 226 3.0 6.0 0.00 0.00 0.00 67 1008.2
20260505073518 55 224 1.0 4.0 0.00 0.00 0.00 67 1008.3
20260505073018 55 226 2.0 4.0 0.00 0.00 0.00 67 1008.3
20260505072518 56 245 1.0 7.0 0.00 0.00 0.00 66 1008.2
20260505072018 56 221 3.0 7.0 0.00 0.00 0.00 66 1008.3
20260505071519 56 232 2.0 4.0 0.00 0.00 0.00 66 1008.2
20260505071018 56 221 1.0 6.0 0.00 0.00 0.00 66 1008.3
20260505070519 56 217 3.0 7.0 0.00 0.00 0.00 65 1008.4
20260505070018 56 228 3.0 9.0 0.00 0.00 0.00 64 1008.5
20260505065519 57 223 4.0 9.0 0.00 0.00 0.00 64 1008.4
20260505065031 57 276 3.0 8.0 0.00 0.00 0.00 64 1008.4
20260505064530 56 236 4.0 9.0 0.00 0.00 0.00 64 1008.4
20260505064020 56 235 4.0 8.0 0.00 0.00 0.00 64 1008.4
20260505063520 56 247 3.0 8.0 0.00 0.00 0.00 64 1008.5
20260505063019 56 217 3.0 8.0 0.00 0.00 0.00 63 1008.5
20260505062519 56 181 4.0 8.0 0.00 0.00 0.00 63 1008.6
20260505062019 56 198 3.0 9.0 0.00 0.00 0.00 63 1008.6
20260505061520 56 228 5.0 9.0 0.00 0.00 0.00 63 1008.6
20260505061019 56 243 5.0 10.0 0.00 0.00 0.00 63 1008.7
20260505060519 57 236 5.0 11.0 0.00 0.00 0.00 62 1008.7
20260505060020 57 231 5.0 11.0 0.00 0.00 0.00 62 1008.7
20260505055530 57 220 4.0 10.0 0.00 0.00 0.00 61 1008.6